Volver al catálogo

IRAS DEB

ActivoSSO
NORAD 13783·DEBRIS·🇺🇸 United States

Lanzado Jan 26, 1983 desde Vandenberg Space Force Base

Loading…

Próximos Pases (próximas 24 horas)

TLE

ActualizadoSource: Space-Track

Época: Sep 14, 2026, 00:28 UTC

1 13783U 83004C   26257.01976354 -.00000050  00000-0 -37687-5 0  9997
2 13783  98.9830  80.6111 0017351  59.4696 103.3807 14.05206228232429

Sigue IRAS DEB en tiempo real con AllMySat

Download on the App Store